Back to catalog

COSMOS 946

AliveNavigationLEO
NORAD 10292·PAYLOAD·🇷🇺 Russia

Launched Aug 24, 1977 from Plesetsk Cosmodrome

Loading…

Next Passes (next 24 hours)

TLE

FreshSource: Space-Track

Epoch: Sep 14, 2026, 11:12 UTC

1 10292U 77079H   26257.46695444 -.00000028  00000-0 -85311-4 0  9992
2 10292  74.0224  68.7690 0031114 255.3417 132.7800 12.44921374210010

Track COSMOS 946 in real time with AllMySat

Download on the App Store